Location: ?????
(37.7324°N, 23.9257°E)
Time: 07:16:49
(UTC+00:00)

NOSS 3-2 (A) - Pass Details

Date: 29 November 2020
Orbit: 791 x 1417 km, 63.4° (Epoch: 20 December)

Event Time Altitude Azimuth Distance (km) Brightness Sun altitude
Exits shadow 02:41:09 69° 252° (WSW) 1,417 4.0 -30.7°
Maximum altitude 02:41:22 69° 242° (WSW) 1,417 4.0 -30.7°
Drops below altitude 10° 02:49:56 10° 161° (SSE) 3,487 6.6 -29.0°
Sets 02:52:56 0° 159° (SSE) 4,474 7.3 -28.4°
